Hourly Weather Suhaya Orlica

Today, 26 January, Tuesday

Time Temperature Precipitation Wind Pressure Humidity
00:00 -2°C° 0.1 mm 7 mps 741 mmHg 95%
01:00 -2°C° 0.1 mm 7 mps 740 mmHg 95%
02:00 -3°C° 0.1 mm 7 mps 740 mmHg 94%
03:00 -4°C° 0 mm 8 mps 739 mmHg 92%
04:00 -4°C° 0 mm 8 mps 739 mmHg 89%
05:00 -4°C° 0 mm 8 mps 738 mmHg 86%
06:00 -4°C° 0.2 mm 8 mps 737 mmHg 89%
07:00 -4°C° 0.2 mm 9 mps 737 mmHg 91%
08:00 -4°C° 0.2 mm 9 mps 736 mmHg 94%
09:00 -3°C° 0.3 mm 9 mps 736 mmHg 96%
10:00 -2°C° 0.3 mm 8 mps 736 mmHg 97%
11:00 -1°C° 0.3 mm 7 mps 736 mmHg 99%
12:00 -2°C° 0.1 mm 8 mps 736 mmHg 97%
13:00 -2°C° 0.1 mm 8 mps 736 mmHg 94%
14:00 -3°C° 0.1 mm 9 mps 737 mmHg 92%
15:00 -2°C° 0 mm 8 mps 737 mmHg 89%
16:00 -2°C° 0 mm 7 mps 738 mmHg 86%
17:00 -2°C° 0 mm 7 mps 738 mmHg 84%
18:00 -2°C° 0 mm 7 mps 738 mmHg 83%
19:00 -2°C° 0 mm 7 mps 739 mmHg 83%
20:00 -3°C° 0 mm 6 mps 739 mmHg 83%
21:00 -3°C° 0 mm 7 mps 739 mmHg 85%
22:00 -3°C° 0 mm 7 mps 739 mmHg 87%
23:00 -3°C° 0 mm 7 mps 739 mmHg 89%

Tomorrow, 27 January, Wednesday

Time Temperature Precipitation Wind Pressure Humidity
00:00 -3°C° 0 mm 7 mps 739 mmHg 89%
01:00 -3°C° 0 mm 6 mps 739 mmHg 89%
02:00 -3°C° 0 mm 6 mps 739 mmHg 89%
03:00 -4°C° 0 mm 6 mps 739 mmHg 89%
04:00 -4°C° 0 mm 6 mps 739 mmHg 89%
05:00 -5°C° 0 mm 6 mps 739 mmHg 89%
06:00 -5°C° 0 mm 6 mps 739 mmHg 89%
07:00 -5°C° 0 mm 6 mps 740 mmHg 89%
08:00 -5°C° 0 mm 5 mps 740 mmHg 90%
09:00 -5°C° 0 mm 5 mps 740 mmHg 90%
10:00 -3°C° 0 mm 4 mps 741 mmHg 90%
11:00 -3°C° 0 mm 4 mps 741 mmHg 91%
12:00 -2°C° 0 mm 3 mps 741 mmHg 91%
13:00 -2°C° 0 mm 2 mps 741 mmHg 92%
14:00 -2°C° 0 mm 2 mps 741 mmHg 93%
15:00 0°C° 0 mm 1 mps 741 mmHg 93%
16:00 -1°C° 0 mm 1 mps 741 mmHg 93%
17:00 -1°C° 0 mm 1 mps 741 mmHg 93%
18:00 -1°C° 0 mm 1 mps 741 mmHg 92%
19:00 -1°C° 0 mm 1 mps 741 mmHg 92%
20:00 -1°C° 0 mm 1 mps 741 mmHg 92%
21:00 -1°C° 0.2 mm 1 mps 741 mmHg 93%
22:00 -3°C° 0.2 mm 2 mps 741 mmHg 93%
23:00 -2°C° 0.2 mm 3 mps 741 mmHg 94%

Day after tomorrow, 28 January, Thursday

Time Temperature Precipitation Wind Pressure Humidity
00:00 -2°C° 0.4 mm 3 mps 741 mmHg 95%
01:00 -2°C° 0.4 mm 3 mps 740 mmHg 96%
02:00 -1°C° 0.4 mm 3 mps 740 mmHg 97%
03:00 -1°C° 0.1 mm 3 mps 740 mmHg 97%
04:00 0°C° 0.1 mm 3 mps 739 mmHg 98%
05:00 0°C° 0.1 mm 3 mps 739 mmHg 98%
06:00 -1°C° 0 mm 4 mps 739 mmHg 97%
07:00 -1°C° 0 mm 4 mps 739 mmHg 96%
08:00 -1°C° 0 mm 5 mps 739 mmHg 95%
09:00 -1°C° 0 mm 5 mps 739 mmHg 95%
10:00 -1°C° 0 mm 4 mps 738 mmHg 96%
11:00 -1°C° 0 mm 4 mps 738 mmHg 97%
12:00 -1°C° 0.2 mm 4 mps 738 mmHg 97%
13:00 -1°C° 0.2 mm 4 mps 738 mmHg 98%
14:00 -1°C° 0.2 mm 5 mps 737 mmHg 98%
15:00 -1°C° 0.2 mm 5 mps 737 mmHg 98%
16:00 -1°C° 0.2 mm 5 mps 737 mmHg 98%
17:00 -1°C° 0.2 mm 5 mps 737 mmHg 97%
18:00 -1°C° 0 mm 5 mps 737 mmHg 97%
19:00 -1°C° 0 mm 5 mps 737 mmHg 97%
20:00 -1°C° 0 mm 5 mps 737 mmHg 97%
21:00 -1°C° 0.1 mm 4 mps 737 mmHg 97%
22:00 -1°C° 0.1 mm 4 mps 737 mmHg 97%
23:00 -1°C° 0.1 mm 4 mps 737 mmHg 97%

29 January, Friday

Time Temperature Precipitation Wind Pressure Humidity
00:00 -1°C° 0 mm 4 mps 737 mmHg 97%
01:00 -1°C° 0 mm 4 mps 737 mmHg 96%
02:00 -1°C° 0 mm 3 mps 737 mmHg 96%
03:00 -1°C° 0 mm 3 mps 736 mmHg 94%
04:00 -1°C° 0 mm 3 mps 736 mmHg 93%
05:00 -2°C° 0 mm 3 mps 736 mmHg 91%
06:00 -2°C° 0 mm 3 mps 736 mmHg 91%
07:00 -2°C° 0 mm 3 mps 735 mmHg 90%
08:00 -3°C° 0 mm 4 mps 735 mmHg 90%
09:00 -3°C° 0 mm 4 mps 734 mmHg 89%
10:00 -3°C° 0 mm 4 mps 734 mmHg 88%
11:00 -2°C° 0 mm 4 mps 733 mmHg 87%
12:00 -2°C° 0 mm 5 mps 732 mmHg 88%
13:00 -2°C° 0 mm 5 mps 732 mmHg 88%
14:00 -2°C° 0 mm 5 mps 731 mmHg 89%
15:00 -2°C° 0.1 mm 5 mps 731 mmHg 91%
16:00 -4°C° 0.1 mm 5 mps 731 mmHg 93%
17:00 -4°C° 0.1 mm 6 mps 730 mmHg 95%
18:00 -5°C° 0.2 mm 6 mps 730 mmHg 94%
19:00 -6°C° 0.2 mm 7 mps 730 mmHg 93%
20:00 -7°C° 0.2 mm 7 mps 730 mmHg 91%
21:00 -6°C° 0 mm 6 mps 730 mmHg 91%
22:00 -8°C° 0 mm 6 mps 730 mmHg 90%
23:00 -8°C° 0 mm 5 mps 730 mmHg 89%

30 January, Saturday

Time Temperature Precipitation Wind Pressure Humidity
00:00 -8°C° 0 mm 5 mps 730 mmHg 89%
01:00 -8°C° 0 mm 4 mps 730 mmHg 90%
02:00 -8°C° 0 mm 4 mps 730 mmHg 90%
03:00 -8°C° 0.1 mm 4 mps 730 mmHg 91%
04:00 -7°C° 0.1 mm 4 mps 730 mmHg 93%
05:00 -7°C° 0.1 mm 4 mps 729 mmHg 94%
06:00 -7°C° 0.1 mm 4 mps 730 mmHg 93%
07:00 -7°C° 0.1 mm 5 mps 730 mmHg 93%
08:00 -7°C° 0.1 mm 5 mps 730 mmHg 92%
09:00 -7°C° 0 mm 5 mps 730 mmHg 91%
10:00 -7°C° 0 mm 5 mps 730 mmHg 90%
11:00 -6°C° 0 mm 6 mps 731 mmHg 89%
12:00 -6°C° 0 mm 6 mps 731 mmHg 88%
13:00 -6°C° 0 mm 5 mps 731 mmHg 87%
14:00 -6°C° 0 mm 5 mps 731 mmHg 86%
15:00 -7°C° 0 mm 5 mps 732 mmHg 87%
16:00 -7°C° 0 mm 5 mps 732 mmHg 88%
17:00 -7°C° 0 mm 5 mps 732 mmHg 88%
18:00 -8°C° 0 mm 4 mps 732 mmHg 89%
19:00 -8°C° 0 mm 4 mps 732 mmHg 89%
20:00 -8°C° 0 mm 4 mps 732 mmHg 90%
21:00 -8°C° 0 mm 4 mps 733 mmHg 91%
22:00 -9°C° 0 mm 4 mps 733 mmHg 92%
23:00 -9°C° 0 mm 4 mps 733 mmHg 92%

31 January, Sunday

Time Temperature Precipitation Wind Pressure Humidity
00:00 -9°C° 0 mm 4 mps 733 mmHg 93%
01:00 -8°C° 0 mm 4 mps 733 mmHg 93%
02:00 -8°C° 0 mm 4 mps 733 mmHg 93%
03:00 -9°C° 0 mm 4 mps 733 mmHg 94%
04:00 -9°C° 0 mm 4 mps 733 mmHg 94%
05:00 -9°C° 0 mm 3 mps 733 mmHg 95%
06:00 -10°C° 0 mm 4 mps 734 mmHg 94%
07:00 -10°C° 0 mm 4 mps 734 mmHg 94%
08:00 -10°C° 0 mm 4 mps 735 mmHg 94%
09:00 -9°C° 0 mm 4 mps 735 mmHg 92%
10:00 -9°C° 0 mm 4 mps 735 mmHg 91%
11:00 -8°C° 0 mm 5 mps 736 mmHg 89%
12:00 -8°C° 0 mm 5 mps 736 mmHg 88%
13:00 -8°C° 0 mm 5 mps 736 mmHg 87%
14:00 -8°C° 0 mm 5 mps 736 mmHg 85%
15:00 -8°C° 0 mm 5 mps 736 mmHg 86%
16:00 -10°C° 0 mm 5 mps 736 mmHg 87%
17:00 -10°C° 0 mm 5 mps 736 mmHg 87%
18:00 -10°C° 0 mm 5 mps 737 mmHg 88%
19:00 -9°C° 0 mm 6 mps 737 mmHg 90%
20:00 -9°C° 0 mm 6 mps 737 mmHg 91%
21:00 -9°C° 0 mm 6 mps 737 mmHg 90%
22:00 -9°C° 0 mm 6 mps 737 mmHg 90%
23:00 -10°C° 0 mm 6 mps 737 mmHg 90%
Show more